Location: Unspecified
(0.0000°N, 0.0000°E)
Time: 00:14:20
(UTC+00:00)

Envisat - Pass Details

Date: 22 January 2022
Orbit: 764 x 766 km, 98.2° (Epoch: 27 January)

Event Time Altitude Azimuth Distance (km) Brightness Sun altitude
Rises 03:41:15 0° 36° (NE) 3,214 6.4 -35.0°
Reaches altitude 10° 03:43:59 10° 51° (NE) 2,292 5.7 -34.4°
Maximum altitude 03:47:55 23° 102° (ESE) 1,575 5.2 -33.5°
Drops below altitude 10° 03:51:52 10° 154° (SSE) 2,300 6.0 -32.6°
Sets 03:54:36 0° 168° (SSE) 3,229 6.7 -32.0°
